Time,TemperatureF,DewpointF,PressureIn,WindDirection,WindDirectionDegrees,WindSpeedMPH,WindSpeedGustMPH,Humidity,HourlyPrecipIn,Conditions,Clouds,dailyrainin,SoftwareType,DateUTC
2013-01-13 00:33:00,21.0,-99.9,-100.00,ENE,71,0.0,0.0,-999,-99.99,,,-99.99,,2013-01-13 08:33:00,
2013-01-13 00:42:00,21.0,-99.9,-100.00,ENE,71,0.0,0.0,-999,-99.99,,,-99.99,,2013-01-13 08:42:00,
2013-01-13 01:32:00,21.0,-99.9,-100.00,NE,53,0.0,0.0,-999,-99.99,,,-99.99,,2013-01-13 09:32:00,
2013-01-13 01:43:00,21.0,-99.9,-100.00,NE,53,0.0,0.0,-999,-99.99,,,-99.99,,2013-01-13 09:43:00,
2013-01-13 03:22:00,17.0,-99.9,-100.00,NNW,335,0.0,0.0,-999,-99.99,,,-99.99,,2013-01-13 11:22:00,
2013-01-13 03:53:00,16.0,-99.9,-100.00,ENE,62,0.0,0.0,-999,-99.99,,,-99.99,,2013-01-13 11:53:00,
2013-01-13 04:03:00,17.0,-99.9,-100.00,ENE,63,0.0,0.0,-999,-99.99,,,-99.99,,2013-01-13 12:03:00,
2013-01-13 04:12:00,17.0,-99.9,-100.00,ENE,63,0.0,0.0,-999,-99.99,,,-99.99,,2013-01-13 12:12:00,
2013-01-13 04:50:00,17.0,-99.9,-100.00,NNW,338,0.0,0.0,-999,-99.99,,,-99.99,,2013-01-13 12:50:00,
2013-01-13 05:33:00,17.0,-99.9,-100.00,NNW,338,0.0,0.0,-999,-99.99,,,-99.99,,2013-01-13 13:33:00,
2013-01-13 05:43:00,17.0,-99.9,-100.00,NNW,338,0.0,0.0,-999,-99.99,,,-99.99,,2013-01-13 13:43:00,
2013-01-13 06:03:00,14.0,-99.9,-100.00,NE,53,0.0,0.0,-999,-99.99,,,-99.99,,2013-01-13 14:03:00,
2013-01-13 08:40:00,26.0,-99.9,-100.00,ESE,115,0.0,0.0,-999,-99.99,,,-99.99,,2013-01-13 16:40:00,
2013-01-13 09:03:00,22.0,-99.9,-100.00,SW,215,0.0,0.0,-999,-99.99,,,-99.99,,2013-01-13 17:03:00,
2013-01-13 09:13:00,22.0,-99.9,-100.00,SW,215,0.0,0.0,-999,-99.99,,,-99.99,,2013-01-13 17:13:00,
2013-01-13 09:23:00,26.0,-99.9,-100.00,ESE,115,0.0,0.0,-999,-99.99,,,-99.99,,2013-01-13 17:23:00,
2013-01-13 09:33:00,26.0,-99.9,-100.00,ESE,115,0.0,0.0,-999,-99.99,,,-99.99,,2013-01-13 17:33:00,
2013-01-13 11:50:00,40.0,-99.9,-100.00,WSW,237,0.0,0.0,-999,-99.99,,,-99.99,,2013-01-13 19:50:00,
2013-01-13 12:23:00,41.0,-99.9,-100.00,SSW,196,0.0,0.0,-999,-99.99,,,-99.99,,2013-01-13 20:23:00,
2013-01-13 12:33:00,40.0,-99.9,-100.00,WSW,237,0.0,0.0,-999,-99.99,,,-99.99,,2013-01-13 20:33:00,
2013-01-13 12:43:00,40.0,-99.9,-100.00,WSW,237,0.0,0.0,-999,-99.99,,,-99.99,,2013-01-13 20:43:00,
2013-01-13 14:50:00,37.0,-99.9,-100.00,SW,230,0.0,0.0,-999,-99.99,,,-99.99,,2013-01-13 22:50:00,
2013-01-13 15:33:00,37.0,-99.9,-100.00,SW,230,0.0,0.0,-999,-99.99,,,-99.99,,2013-01-13 23:33:00,
2013-01-13 15:43:00,37.0,-99.9,-100.00,SW,230,0.0,0.0,-999,-99.99,,,-99.99,,2013-01-13 23:43:00,
2013-01-13 16:00:00,34.0,-99.9,-100.00,WSW,253,0.0,0.0,-999,-99.99,,,-99.99,,2013-01-14 00:00:00,
2013-01-13 16:53:00,34.0,-99.9,-100.00,WSW,253,0.0,0.0,-999,-99.99,,,-99.99,,2013-01-14 00:53:00,
2013-01-13 17:33:00,29.0,-99.9,-100.00,SW,219,0.0,0.0,-999,-99.99,,,-99.99,,2013-01-14 01:33:00,
2013-01-13 17:43:00,29.0,-99.9,-100.00,SW,219,0.0,0.0,-999,-99.99,,,-99.99,,2013-01-14 01:43:00,
2013-01-13 18:10:00,26.0,-99.9,-100.00,South,185,0.0,0.0,-999,-99.99,,,-99.99,,2013-01-14 02:10:00,
2013-01-13 18:33:00,26.0,-99.9,-100.00,NNW,332,0.0,0.0,-999,-99.99,,,-99.99,,2013-01-14 02:33:00,
2013-01-13 18:43:00,26.0,-99.9,-100.00,NNW,332,0.0,0.0,-999,-99.99,,,-99.99,,2013-01-14 02:43:00,
2013-01-13 18:53:00,26.0,-99.9,-100.00,South,185,0.0,0.0,-999,-99.99,,,-99.99,,2013-01-14 02:53:00,
2013-01-13 19:03:00,26.0,-99.9,-100.00,South,185,0.0,0.0,-999,-99.99,,,-99.99,,2013-01-14 03:03:00,
2013-01-13 21:10:00,18.0,-99.9,-100.00,North,351,0.0,0.0,-999,-99.99,,,-99.99,,2013-01-14 05:10:00,
2013-01-13 21:53:00,18.0,-99.9,-100.00,North,351,0.0,0.0,-999,-99.99,,,-99.99,,2013-01-14 05:53:00,
2013-01-13 22:03:00,18.0,-99.9,-100.00,North,351,0.0,0.0,-999,-99.99,,,-99.99,,2013-01-14 06:03:00,